| time (UTC) | temp F | wind direction | speed MPH | gust MPH | rain 1hr in | rain 24hr in | rain mn in | humidity % | barometer mb |
| 20260505111514 | 60 | 1 | 0.0 | 7.0 | 0.00 | 0.05 | 0.05 | 85 | 1006.5 |
| 20260505111010 | 60 | 2 | 0.0 | 4.0 | 0.00 | 0.05 | 0.05 | 85 | 1007.2 |
| 20260505110507 | 60 | 356 | 4.0 | 4.0 | 0.00 | 0.05 | 0.05 | 85 | 1007.4 |
| 20260505101940 | 61 | 357 | 1.0 | 2.0 | 0.00 | 0.05 | 0.05 | 88 | 1007.0 |
| 20260505101438 | 61 | 358 | 2.0 | 3.0 | 0.00 | 0.05 | 0.05 | 88 | 1006.5 |
| 20260505100934 | 60 | 354 | 0.0 | 6.0 | 0.00 | 0.05 | 0.05 | 89 | 1006.4 |
| 20260505100431 | 60 | 3 | 1.0 | 3.0 | 0.00 | 0.05 | 0.05 | 91 | 1007.1 |
| 20260505095927 | 60 | 10 | 1.0 | 2.0 | 0.00 | 0.05 | 0.05 | 92 | 1006.6 |
| 20260505095424 | 60 | 10 | 0.0 | 1.0 | 0.00 | 0.05 | 0.05 | 91 | 1006.2 |
| 20260505094920 | 60 | 10 | 1.0 | 1.0 | 0.00 | 0.05 | 0.05 | 91 | 1006.4 |
| 20260505094417 | 60 | 11 | 1.0 | 1.0 | 0.00 | 0.05 | 0.05 | 90 | 1005.7 |
| 20260505093913 | 60 | 11 | 1.0 | 1.0 | 0.00 | 0.05 | 0.05 | 89 | 1005.5 |
| 20260505093410 | 60 | 11 | 0.0 | 0.0 | 0.00 | 0.05 | 0.05 | 88 | 1005.7 |
| 20260505092908 | 60 | 11 | 0.0 | 0.0 | 0.00 | 0.05 | 0.05 | 88 | 1005.9 |
| 20260505092406 | 60 | 53 | 0.0 | 0.0 | 0.00 | 0.05 | 0.05 | 88 | 1005.8 |
| 20260505091903 | 60 | 57 | 1.0 | 2.0 | 0.00 | 0.05 | 0.05 | 89 | 1005.6 |
| 20260505091400 | 60 | 350 | 2.0 | 3.0 | 0.00 | 0.05 | 0.05 | 90 | 1005.4 |
| 20260505090858 | 60 | 351 | 2.0 | 3.0 | 0.00 | 0.05 | 0.05 | 89 | 1004.6 |
| 20260505090356 | 61 | 45 | 1.0 | 1.0 | 0.05 | 0.05 | 0.05 | 88 | 1004.5 |
| 20260505085853 | 61 | 146 | 2.0 | 10.0 | 0.05 | 0.05 | 0.05 | 87 | 1004.4 |
| 20260505085351 | 61 | 242 | 2.0 | 6.0 | 0.00 | 0.04 | 0.04 | 88 | 1004.7 |
| 20260505084849 | 61 | 182 | 4.0 | 8.0 | 0.07 | 0.04 | 0.04 | 88 | 1004.7 |
| 20260505084347 | 62 | 126 | 3.0 | 6.0 | 0.05 | 0.03 | 0.03 | 87 | 1005.4 |
| 20260505083844 | 62 | 194 | 2.0 | 3.0 | 0.07 | 0.02 | 0.02 | 86 | 1006.4 |
| 20260505083341 | 62 | 10 | 0.0 | 2.0 | 0.14 | 0.02 | 0.02 | 86 | 1006.6 |
| 20260505082838 | 62 | 1 | 1.0 | 2.0 | 0.07 | 0.01 | 0.01 | 85 | 1006.5 |
| 20260505082334 | 62 | 317 | 2.0 | 4.0 | 0.00 | 0.00 | 0.00 | 84 | 1007.1 |
| 20260505081831 | 63 | 29 | 0.0 | 6.0 | 0.00 | 0.00 | 0.00 | 83 | 1006.6 |
| 20260505081327 | 63 | 355 | 2.0 | 7.0 | 0.00 | 0.00 | 0.00 | 81 | 1006.9 |
| 20260505080824 | 63 | 7 | 2.0 | 3.0 | 0.00 | 0.00 | 0.00 | 80 | 1006.8 |
| 20260505080320 | 64 | 86 | 2.0 | 4.0 | 0.00 | 0.00 | 0.00 | 79 | 1006.2 |
| 20260505075815 | 64 | 359 | 2.0 | 6.0 | 0.00 | 0.00 | 0.00 | 76 | 1006.4 |
| 20260505075313 | 64 | 5 | 2.0 | 4.0 | 0.00 | 0.00 | 0.00 | 74 | 1006.3 |
| 20260505074810 | 65 | 254 | 1.0 | 6.0 | 0.00 | 0.00 | 0.00 | 73 | 1006.3 |
| 20260505074307 | 65 | 352 | 2.0 | 3.0 | 0.00 | 0.00 | 0.00 | 73 | 1006.4 |
| 20260505073805 | 65 | 338 | 2.0 | 3.0 | 0.00 | 0.00 | 0.00 | 72 | 1006.5 |
| 20260505073303 | 65 | 36 | 0.0 | 1.0 | 0.00 | 0.00 | 0.00 | 71 | 1006.5 |
| 20260505072759 | 65 | 359 | 1.0 | 2.0 | 0.00 | 0.00 | 0.00 | 70 | 1006.3 |
| 20260505072255 | 65 | 7 | 0.0 | 1.0 | 0.00 | 0.00 | 0.00 | 69 | 1006.0 |
| 20260505071751 | 65 | 21 | 0.0 | 1.0 | 0.00 | 0.00 | 0.00 | 68 | 1006.3 |
| 20260505071248 | 65 | 18 | 0.0 | 3.0 | 0.00 | 0.00 | 0.00 | 68 | 1006.3 |
| 20260505070745 | 65 | 42 | 1.0 | 6.0 | 0.00 | 0.00 | 0.00 | 67 | 1006.2 |
| 20260505070242 | 65 | 354 | 1.0 | 2.0 | 0.00 | 0.00 | 0.00 | 67 | 1006.1 |
| 20260505065737 | 65 | 138 | 3.0 | 4.0 | 0.00 | 0.00 | 0.00 | 67 | 1006.2 |
| 20260505065234 | 65 | 3 | 0.0 | 2.0 | 0.00 | 0.00 | 0.00 | 67 | 1006.0 |
| 20260505064731 | 66 | 22 | 1.0 | 2.0 | 0.00 | 0.00 | 0.00 | 67 | 1006.0 |
| 20260505064229 | 66 | 29 | 1.0 | 3.0 | 0.00 | 0.00 | 0.00 | 67 | 1006.3 |
| 20260505063726 | 66 | 47 | 2.0 | 4.0 | 0.00 | 0.00 | 0.00 | 67 | 1006.5 |
| 20260505063222 | 66 | 12 | 0.0 | 1.0 | 0.00 | 0.00 | 0.00 | 67 | 1006.8 |
| 20260505062719 | 66 | 230 | 2.0 | 3.0 | 0.00 | 0.00 | 0.00 | 66 | 1006.9 |
| 20260505062217 | 66 | 3 | 1.0 | 3.0 | 0.00 | 0.00 | 0.00 | 66 | 1006.9 |
| 20260505061713 | 66 | 88 | 0.0 | 2.0 | 0.00 | 0.00 | 0.00 | 67 | 1006.6 |
| 20260505061212 | 66 | 6 | 1.0 | 2.0 | 0.00 | 0.00 | 0.00 | 67 | 1007.0 |
| 20260505060708 | 66 | 25 | 0.0 | 1.0 | 0.00 | 0.00 | 0.00 | 67 | 1006.9 |
| 20260505060205 | 66 | 278 | 2.0 | 3.0 | 0.00 | 0.00 | 0.00 | 66 | 1007.0 |
| 20260505055700 | 66 | 35 | 0.0 | 1.0 | 0.00 | 0.00 | 0.00 | 66 | 1006.4 |
| 20260505055157 | 66 | 31 | 0.0 | 2.0 | 0.00 | 0.00 | 0.00 | 66 | 1006.8 |
| 20260505054655 | 66 | 14 | 2.0 | 2.0 | 0.00 | 0.00 | 0.00 | 66 | 1006.8 |
| 20260505054153 | 66 | 3 | 0.0 | 3.0 | 0.00 | 0.00 | 0.00 | 66 | 1007.0 |
| 20260505053650 | 66 | 13 | 1.0 | 3.0 | 0.00 | 0.00 | 0.00 | 66 | 1006.9 |
| 20260505053146 | 66 | 33 | 0.0 | 2.0 | 0.00 | 0.00 | 0.00 | 66 | 1006.9 |
| 20260505052643 | 66 | 285 | 2.0 | 6.0 | 0.00 | 0.00 | 0.00 | 65 | 1006.9 |
| 20260505052141 | 66 | 102 | 1.0 | 3.0 | 0.00 | 0.00 | 0.00 | 65 | 1006.6 |
| 20260505051637 | 66 | 139 | 3.0 | 4.0 | 0.00 | 0.00 | 0.00 | 65 | 1006.6 |
| 20260505051136 | 66 | 54 | 1.0 | 4.0 | 0.00 | 0.00 | 0.00 | 65 | 1006.8 |
| 20260505050633 | 66 | 69 | 0.0 | 3.0 | 0.00 | 0.00 | 0.00 | 65 | 1006.8 |
| 20260505050131 | 66 | 32 | 1.0 | 2.0 | 0.00 | 0.00 | 0.00 | 65 | 1006.8 |
| 20260505041601 | 67 | 39 | 0.0 | 2.0 | 0.00 | 0.00 | 0.00 | 64 | 1007.4 |
| 20260505041058 | 67 | 55 | 1.0 | 1.0 | 0.00 | 0.00 | 0.00 | 64 | 1007.5 |
| 20260505040555 | 67 | 342 | 0.0 | 1.0 | 0.00 | 0.00 | 0.00 | 63 | 1007.6 |
| 20260505040052 | 67 | 20 | 1.0 | 2.0 | 0.00 | 0.00 | 0.00 | 63 | 1007.6 |
| 20260505035549 | 68 | 26 | 1.0 | 1.0 | 0.00 | 0.00 | 0.00 | 63 | 1007.7 |
| 20260505035045 | 68 | 349 | 0.0 | 1.0 | 0.00 | 0.00 | 0.00 | 62 | 1007.8 |
| 20260505034542 | 68 | 350 | 1.0 | 1.0 | 0.00 | 0.00 | 0.00 | 62 | 1007.8 |
| 20260505034039 | 68 | 16 | 0.0 | 0.0 | 0.00 | 0.00 | 0.00 | 61 | 1008.0 |
| 20260505033536 | 68 | 4 | 0.0 | 1.0 | 0.00 | 0.00 | 0.00 | 61 | 1008.0 |
| 20260505033034 | 69 | 41 | 1.0 | 1.0 | 0.00 | 0.00 | 0.00 | 60 | 1008.2 |
| 20260505032531 | 69 | 41 | 2.0 | 2.0 | 0.00 | 0.00 | 0.00 | 59 | 1008.0 |
| 20260505032028 | 69 | 37 | 2.0 | 6.0 | 0.00 | 0.00 | 0.00 | 59 | 1007.9 |
| 20260505031525 | 69 | 21 | 0.0 | 2.0 | 0.00 | 0.00 | 0.00 | 59 | 1007.9 |
| 20260505031021 | 70 | 8 | 0.0 | 3.0 | 0.00 | 0.00 | 0.00 | 59 | 1007.9 |
| 20260505030518 | 70 | 347 | 0.0 | 2.0 | 0.00 | 0.00 | 0.00 | 58 | 1007.7 |
| 20260505030015 | 70 | 300 | 1.0 | 2.0 | 0.00 | 0.00 | 0.00 | 58 | 1008.0 |
| 20260505025510 | 70 | 29 | 2.0 | 3.0 | 0.00 | 0.00 | 0.00 | 58 | 1008.0 |
| 20260505025010 | 70 | 6 | 0.0 | 1.0 | 0.00 | 0.00 | 0.00 | 57 | 1007.9 |
| 20260505024506 | 70 | 332 | 1.0 | 6.0 | 0.00 | 0.00 | 0.00 | 57 | 1007.7 |
| 20260505024003 | 70 | 88 | 1.0 | 3.0 | 0.00 | 0.00 | 0.00 | 57 | 1007.6 |
| 20260505023500 | 71 | 301 | 2.0 | 3.0 | 0.00 | 0.00 | 0.00 | 57 | 1007.5 |
| 20260505022957 | 71 | 28 | 0.0 | 2.0 | 0.00 | 0.00 | 0.00 | 57 | 1007.6 |
| 20260505022455 | 71 | 313 | 3.0 | 4.0 | 0.00 | 0.00 | 0.00 | 57 | 1007.5 |
| 20260505021952 | 71 | 356 | 0.0 | 1.0 | 0.00 | 0.00 | 0.00 | 57 | 1007.1 |
| 20260505021448 | 71 | 9 | 2.0 | 2.0 | 0.00 | 0.00 | 0.00 | 57 | 1007.2 |
| 20260505020944 | 71 | 0 | 1.0 | 3.0 | 0.00 | 0.00 | 0.00 | 56 | 1007.1 |
| 20260505020439 | 71 | 67 | 1.0 | 4.0 | 0.00 | 0.00 | 0.00 | 56 | 1007.3 |
| 20260505015937 | 71 | 328 | 1.0 | 2.0 | 0.00 | 0.00 | 0.00 | 55 | 1007.1 |
| 20260505015434 | 71 | 50 | 1.0 | 2.0 | 0.00 | 0.00 | 0.00 | 56 | 1007.0 |
| 20260505014931 | 72 | 34 | 1.0 | 1.0 | 0.00 | 0.00 | 0.00 | 55 | 1006.9 |
| 20260505014428 | 72 | 67 | 1.0 | 1.0 | 0.00 | 0.00 | 0.00 | 55 | 1006.8 |
| 20260505013925 | 72 | 299 | 2.0 | 2.0 | 0.00 | 0.00 | 0.00 | 55 | 1006.9 |
| 20260505013422 | 72 | 339 | 1.0 | 2.0 | 0.00 | 0.00 | 0.00 | 54 | 1006.6 |
| 20260505012920 | 72 | 306 | 2.0 | 3.0 | 0.00 | 0.00 | 0.00 | 53 | 1006.4 |
| 20260505012418 | 72 | 338 | 1.0 | 4.0 | 0.00 | 0.00 | 0.00 | 53 | 1006.5 |
| 20260505011914 | 72 | 282 | 1.0 | 2.0 | 0.00 | 0.00 | 0.00 | 53 | 1006.5 |
| 20260505011410 | 73 | 1 | 0.0 | 1.0 | 0.00 | 0.00 | 0.00 | 52 | 1006.2 |
| 20260505010907 | 73 | 23 | 0.0 | 1.0 | 0.00 | 0.00 | 0.00 | 52 | 1006.3 |
| 20260505010402 | 73 | 14 | 0.0 | 1.0 | 0.00 | 0.00 | 0.00 | 51 | 1006.1 |
| 20260505005858 | 74 | 342 | 2.0 | 3.0 | 0.00 | 0.00 | 0.00 | 50 | 1006.2 |
| 20260505005355 | 74 | 287 | 2.0 | 3.0 | 0.00 | 0.00 | 0.00 | 49 | 1006.1 |
| 20260505004853 | 74 | 44 | 1.0 | 2.0 | 0.00 | 0.00 | 0.00 | 49 | 1006.0 |
| 20260505004349 | 74 | 14 | 0.0 | 3.0 | 0.00 | 0.00 | 0.00 | 48 | 1006.1 |
| 20260505003847 | 75 | 43 | 0.0 | 1.0 | 0.00 | 0.00 | 0.00 | 48 | 1006.2 |
| 20260505003344 | 75 | 290 | 1.0 | 3.0 | 0.00 | 0.00 | 0.00 | 48 | 1006.2 |
| 20260505002840 | 75 | 326 | 2.0 | 3.0 | 0.00 | 0.00 | 0.00 | 48 | 1006.1 |
| 20260505002337 | 75 | 14 | 0.0 | 2.0 | 0.00 | 0.00 | 0.00 | 48 | 1005.9 |
| 20260505001835 | 75 | 39 | 1.0 | 4.0 | 0.00 | 0.00 | 0.00 | 47 | 1005.9 |
| 20260505001332 | 76 | 38 | 0.0 | 1.0 | 0.00 | 0.00 | 0.00 | 46 | 1006.0 |
| 20260505000829 | 76 | 55 | 2.0 | 3.0 | 0.00 | 0.00 | 0.00 | 46 | 1005.8 |
| 20260505000327 | 76 | 52 | 1.0 | 1.0 | 0.00 | 0.00 | 0.00 | 46 | 1006.0 |
| 20260504235823 | 76 | 302 | 2.0 | 2.0 | 0.00 | 0.00 | 0.00 | 45 | 1006.1 |
| 20260504235320 | 77 | 347 | 1.0 | 2.0 | 0.00 | 0.00 | 0.00 | 46 | 1005.9 |
| 20260504234817 | 77 | 16 | 0.0 | 2.0 | 0.00 | 0.00 | 0.00 | 44 | 1006.3 |
| 20260504234315 | 77 | 18 | 1.0 | 3.0 | 0.00 | 0.00 | 0.00 | 44 | 1005.9 |
| 20260504233811 | 77 | 200 | 4.0 | 7.0 | 0.00 | 0.00 | 0.00 | 45 | 1005.8 |
| 20260504233306 | 77 | 301 | 4.0 | 7.0 | 0.00 | 0.00 | 0.00 | 43 | 1005.9 |
| 20260504232803 | 77 | 7 | 2.0 | 8.0 | 0.00 | 0.00 | 0.00 | 44 | 1005.9 |
| 20260504232301 | 78 | 8 | 2.0 | 3.0 | 0.00 | 0.00 | 0.00 | 44 | 1005.9 |
| 20260504231758 | 78 | 252 | 6.0 | 8.0 | 0.00 | 0.00 | 0.00 | 44 | 1006.0 |
| 20260504231254 | 78 | 124 | 3.0 | 4.0 | 0.00 | 0.00 | 0.00 | 43 | 1005.8 |
| 20260504230750 | 78 | 272 | 4.0 | 6.0 | 0.00 | 0.00 | 0.00 | 43 | 1006.1 |
| 20260504230248 | 78 | 254 | 2.0 | 3.0 | 0.00 | 0.00 | 0.00 | 44 | 1006.0 |
| 20260504225747 | 78 | 282 | 2.0 | 4.0 | 0.00 | 0.00 | 0.00 | 43 | 1006.0 |
| 20260504225243 | 78 | 93 | 4.0 | 8.0 | 0.00 | 0.00 | 0.00 | 42 | 1006.0 |
| 20260504224740 | 79 | 67 | 2.0 | 8.0 | 0.00 | 0.00 | 0.00 | 42 | 1006.0 |
| 20260504224237 | 79 | 68 | 2.0 | 6.0 | 0.00 | 0.00 | 0.00 | 43 | 1006.0 |
| 20260504223733 | 79 | 206 | 3.0 | 8.0 | 0.00 | 0.00 | 0.00 | 44 | 1005.9 |
| 20260504223229 | 79 | 343 | 1.0 | 3.0 | 0.00 | 0.00 | 0.00 | 42 | 1005.8 |
| 20260504222726 | 79 | 292 | 6.0 | 9.0 | 0.00 | 0.00 | 0.00 | 42 | 1006.0 |
| 20260504222223 | 79 | 276 | 3.0 | 7.0 | 0.00 | 0.00 | 0.00 | 42 | 1005.9 |
| 20260504221721 | 79 | 286 | 6.0 | 9.0 | 0.00 | 0.00 | 0.00 | 42 | 1006.0 |
| 20260504221217 | 79 | 223 | 8.0 | 11.0 | 0.00 | 0.00 | 0.00 | 41 | 1006.0 |
| 20260504220714 | 79 | 268 | 6.0 | 7.0 | 0.00 | 0.00 | 0.00 | 42 | 1006.0 |
| 20260504220212 | 79 | 28 | 2.0 | 4.0 | 0.00 | 0.00 | 0.00 | 44 | 1006.1 |
| 20260504215708 | 79 | 282 | 2.0 | 8.0 | 0.00 | 0.00 | 0.00 | 43 | 1006.0 |
| 20260504215205 | 80 | 42 | 2.0 | 7.0 | 0.00 | 0.00 | 0.00 | 43 | 1006.0 |
| 20260504214701 | 79 | 23 | 2.0 | 6.0 | 0.00 | 0.00 | 0.00 | 43 | 1005.9 |
| 20260504214157 | 79 | 264 | 4.0 | 6.0 | 0.00 | 0.00 | 0.00 | 44 | 1006.2 |
| 20260504213654 | 79 | 99 | 3.0 | 8.0 | 0.00 | 0.00 | 0.00 | 43 | 1006.3 |
| 20260504213151 | 80 | 146 | 3.0 | 8.0 | 0.00 | 0.00 | 0.00 | 44 | 1006.2 |
| 20260504212647 | 80 | 333 | 1.0 | 8.0 | 0.00 | 0.00 | 0.00 | 44 | 1006.4 |
| 20260504212144 | 80 | 19 | 3.0 | 4.0 | 0.00 | 0.00 | 0.00 | 42 | 1006.1 |
| 20260504211641 | 80 | 277 | 4.0 | 7.0 | 0.00 | 0.00 | 0.00 | 41 | 1006.4 |
| 20260504211138 | 80 | 353 | 1.0 | 4.0 | 0.00 | 0.00 | 0.00 | 43 | 1006.4 |
| 20260504210636 | 81 | 7 | 1.0 | 4.0 | 0.00 | 0.00 | 0.00 | 42 | 1006.4 |
| 20260504210132 | 80 | 225 | 6.0 | 7.0 | 0.00 | 0.00 | 0.00 | 43 | 1006.8 |
| 20260504205629 | 80 | 120 | 3.0 | 8.0 | 0.00 | 0.00 | 0.00 | 43 | 1006.5 |
| 20260504205127 | 80 | 345 | 1.0 | 9.0 | 0.00 | 0.00 | 0.00 | 43 | 1006.6 |
| 20260504204625 | 80 | 247 | 4.0 | 8.0 | 0.00 | 0.00 | 0.00 | 42 | 1006.4 |
| 20260504204124 | 80 | 67 | 2.0 | 7.0 | 0.00 | 0.00 | 0.00 | 44 | 1006.6 |
| 20260504203623 | 81 | 315 | 1.0 | 10.0 | 0.00 | 0.00 | 0.00 | 42 | 1006.6 |
| 20260504203120 | 81 | 60 | 1.0 | 7.0 | 0.00 | 0.00 | 0.00 | 42 | 1006.9 |
| 20260504202620 | 81 | 335 | 2.0 | 3.0 | 0.00 | 0.00 | 0.00 | 43 | 1007.0 |
| 20260504202117 | 82 | 145 | 4.0 | 8.0 | 0.00 | 0.00 | 0.00 | 40 | 1007.1 |
| 20260504201614 | 81 | 323 | 1.0 | 9.0 | 0.00 | 0.00 | 0.00 | 44 | 1007.1 |
| 20260504201112 | 82 | 230 | 5.0 | 7.0 | 0.00 | 0.00 | 0.00 | 41 | 1007.3 |
| 20260504200609 | 82 | 237 | 3.0 | 4.0 | 0.00 | 0.00 | 0.00 | 41 | 1007.3 |
| 20260504200105 | 82 | 85 | 3.0 | 3.0 | 0.00 | 0.00 | 0.00 | 40 | 1007.1 |
| 20260504195601 | 82 | 66 | 4.0 | 8.0 | 0.00 | 0.00 | 0.00 | 40 | 1007.3 |
| 20260504195057 | 81 | 346 | 2.0 | 6.0 | 0.00 | 0.00 | 0.00 | 45 | 1007.4 |
| 20260504194554 | 82 | 239 | 4.0 | 7.0 | 0.00 | 0.00 | 0.00 | 41 | 1007.6 |
| 20260504194049 | 81 | 339 | 0.0 | 3.0 | 0.00 | 0.00 | 0.00 | 40 | 1007.5 |
| 20260504193546 | 81 | 350 | 2.0 | 11.0 | 0.00 | 0.00 | 0.00 | 41 | 1007.5 |
| 20260504193045 | 80 | 257 | 4.0 | 10.0 | 0.00 | 0.00 | 0.00 | 42 | 1007.6 |
| 20260504192543 | 81 | 41 | 3.0 | 6.0 | 0.00 | 0.00 | 0.00 | 40 | 1007.7 |
| 20260504192041 | 81 | 141 | 2.0 | 3.0 | 0.00 | 0.00 | 0.00 | 41 | 1007.6 |
| 20260504191538 | 81 | 231 | 5.0 | 8.0 | 0.00 | 0.00 | 0.00 | 41 | 1007.8 |
| 20260504191034 | 81 | 19 | 2.0 | 3.0 | 0.00 | 0.00 | 0.00 | 41 | 1007.7 |
| 20260504190531 | 81 | 258 | 1.0 | 2.0 | 0.00 | 0.00 | 0.00 | 45 | 1007.7 |
| 20260504190027 | 81 | 227 | 5.0 | 7.0 | 0.00 | 0.00 | 0.00 | 41 | 1007.6 |
| 20260504185524 | 81 | 171 | 5.0 | 9.0 | 0.00 | 0.00 | 0.00 | 41 | 1007.7 |
| 20260504185020 | 80 | 358 | 1.0 | 6.0 | 0.00 | 0.00 | 0.00 | 43 | 1007.6 |
| 20260504184516 | 80 | 255 | 4.0 | 13.0 | 0.00 | 0.00 | 0.00 | 40 | 1007.7 |
| 20260504184012 | 81 | 10 | 4.0 | 13.0 | 0.00 | 0.00 | 0.00 | 40 | 1007.8 |
| 20260504183509 | 80 | 332 | 5.0 | 7.0 | 0.00 | 0.00 | 0.00 | 42 | 1007.8 |
| 20260504183007 | 81 | 270 | 5.0 | 7.0 | 0.00 | 0.00 | 0.00 | 40 | 1007.7 |
| 20260504182503 | 80 | 31 | 1.0 | 2.0 | 0.00 | 0.00 | 0.00 | 45 | 1007.8 |
| 20260504182001 | 80 | 312 | 3.0 | 6.0 | 0.00 | 0.00 | 0.00 | 41 | 1007.6 |
| 20260504181458 | 80 | 249 | 3.0 | 7.0 | 0.00 | 0.00 | 0.00 | 42 | 1007.4 |
| 20260504180956 | 79 | 243 | 3.0 | 6.0 | 0.00 | 0.00 | 0.00 | 43 | 1007.7 |
| 20260504180455 | 80 | 282 | 3.0 | 13.0 | 0.00 | 0.00 | 0.00 | 42 | 1007.6 |
| 20260504175953 | 80 | 256 | 4.0 | 14.0 | 0.00 | 0.00 | 0.00 | 43 | 1007.6 |
| 20260504175450 | 80 | 300 | 2.0 | 4.0 | 0.00 | 0.00 | 0.00 | 45 | 1007.8 |
| 20260504174947 | 79 | 306 | 2.0 | 7.0 | 0.00 | 0.00 | 0.00 | 44 | 1007.7 |
| 20260504174445 | 79 | 311 | 1.0 | 11.0 | 0.00 | 0.00 | 0.00 | 45 | 1008.0 |
| 20260504173942 | 79 | 241 | 3.0 | 4.0 | 0.00 | 0.00 | 0.00 | 44 | 1008.1 |
| 20260504173438 | 79 | 312 | 3.0 | 10.0 | 0.00 | 0.00 | 0.00 | 43 | 1008.0 |
| 20260504172936 | 78 | 60 | 3.0 | 6.0 | 0.00 | 0.00 | 0.00 | 46 | 1007.8 |
| 20260504172431 | 79 | 11 | 2.0 | 9.0 | 0.00 | 0.00 | 0.00 | 44 | 1008.1 |
| 20260504171928 | 78 | 334 | 3.0 | 4.0 | 0.00 | 0.00 | 0.00 | 44 | 1008.0 |
| 20260504171425 | 78 | 232 | 6.0 | 8.0 | 0.00 | 0.00 | 0.00 | 43 | 1008.1 |
| 20260504170922 | 78 | 284 | 6.0 | 9.0 | 0.00 | 0.00 | 0.00 | 42 | 1008.1 |
| 20260504170418 | 78 | 25 | 2.0 | 7.0 | 0.00 | 0.00 | 0.00 | 43 | 1008.0 |
| 20260504160337 | 75 | 229 | 3.0 | 10.0 | 0.00 | 0.00 | 0.00 | 45 | 1008.7 |
| 20260504150802 | 74 | 343 | 4.0 | 7.0 | 0.00 | 0.00 | 0.00 | 44 | 1009.1 |
| 20260504150259 | 73 | 316 | 2.0 | 4.0 | 0.00 | 0.00 | 0.00 | 47 | 1009.2 |
| 20260504141229 | 70 | 110 | 2.0 | 6.0 | 0.00 | 0.00 | 0.00 | 49 | 1009.9 |
| 20260504140725 | 70 | 339 | 2.0 | 4.0 | 0.00 | 0.00 | 0.00 | 50 | 1009.9 |
| 20260504140221 | 70 | 258 | 2.0 | 4.0 | 0.00 | 0.00 | 0.00 | 50 | 1009.8 |
| 20260504130649 | 67 | 52 | 2.0 | 4.0 | 0.00 | 0.00 | 0.00 | 53 | 1010.1 |
| 20260504130146 | 66 | 82 | 1.0 | 4.0 | 0.00 | 0.00 | 0.00 | 53 | 1010.3 |
| 20260504120110 | 62 | 195 | 3.0 | 4.0 | 0.00 | 0.00 | 0.00 | 58 | 1010.5 |